Year,Month,Day,Hour,Minute,Value (Times are PST for temperature in C)
2007,08,30,00,00,18.70
2007,08,30,00,01,18.70
2007,08,30,00,02,18.70
2007,08,30,00,03,18.70
2007,08,30,00,04,18.70
2007,08,30,00,05,18.70
2007,08,30,00,06,18.70
2007,08,30,00,07,18.70
2007,08,30,00,08,18.60
2007,08,30,00,09,18.60
2007,08,30,00,10,18.60
2007,08,30,00,11,18.50
2007,08,30,00,12,18.50
2007,08,30,00,13,18.50
2007,08,30,00,14,18.40
2007,08,30,00,15,18.40
2007,08,30,00,16,18.30
2007,08,30,00,17,18.30
2007,08,30,00,18,18.30
2007,08,30,00,19,18.20
2007,08,30,00,20,18.20
2007,08,30,00,21,18.20
2007,08,30,00,22,18.20
2007,08,30,00,23,18.10
2007,08,30,00,24,18.10
2007,08,30,00,25,18.00
2007,08,30,00,26,17.90
2007,08,30,00,27,17.90
2007,08,30,00,28,17.90
2007,08,30,00,29,17.90
2007,08,30,00,30,17.90
2007,08,30,00,31,17.90
2007,08,30,00,32,17.90
2007,08,30,00,33,17.90
2007,08,30,00,34,17.90
2007,08,30,00,35,17.90
2007,08,30,00,36,17.90
2007,08,30,00,37,17.90
2007,08,30,00,38,17.90
2007,08,30,00,39,17.90
2007,08,30,00,40,17.90
2007,08,30,00,41,17.90
2007,08,30,00,42,17.80
2007,08,30,00,43,17.80
2007,08,30,00,44,17.70
2007,08,30,00,45,17.70
2007,08,30,00,46,17.70
2007,08,30,00,47,17.70
2007,08,30,00,48,17.60
2007,08,30,00,49,17.60
2007,08,30,00,50,17.60
2007,08,30,00,51,17.60
2007,08,30,00,52,17.50
2007,08,30,00,53,17.50
2007,08,30,00,54,17.50
2007,08,30,00,55,17.40
2007,08,30,00,56,17.40
2007,08,30,00,57,17.40
2007,08,30,00,58,17.40
2007,08,30,00,59,17.40
2007,08,30,01,00,17.30
2007,08,30,01,01,17.30
2007,08,30,01,02,17.30
2007,08,30,01,03,17.30
2007,08,30,01,04,17.30
2007,08,30,01,05,17.20
2007,08,30,01,06,17.20
2007,08,30,01,07,17.20
2007,08,30,01,08,17.20
2007,08,30,01,09,17.10
2007,08,30,01,10,17.10
2007,08,30,01,11,17.10
2007,08,30,01,12,17.10
2007,08,30,01,13,17.10
2007,08,30,01,14,17.10
2007,08,30,01,15,17.10
2007,08,30,01,16,17.10
2007,08,30,01,17,17.10
2007,08,30,01,18,17.10
2007,08,30,01,19,17.10
2007,08,30,01,20,17.10
2007,08,30,01,21,17.00
2007,08,30,01,22,16.90
2007,08,30,01,23,16.80
2007,08,30,01,24,16.80
2007,08,30,01,25,16.70
2007,08,30,01,26,16.70
2007,08,30,01,27,16.70
2007,08,30,01,28,16.60
2007,08,30,01,29,16.60
2007,08,30,01,30,16.50
2007,08,30,01,31,16.40
2007,08,30,01,32,16.30
2007,08,30,01,33,16.20
2007,08,30,01,34,16.10
2007,08,30,01,35,16.00
2007,08,30,01,36,15.90
2007,08,30,01,37,15.80
2007,08,30,01,38,15.60
2007,08,30,01,39,15.50
2007,08,30,01,40,15.30
2007,08,30,01,41,15.10
2007,08,30,01,42,14.90
2007,08,30,01,43,14.70
2007,08,30,01,44,14.60
2007,08,30,01,45,14.50
2007,08,30,01,46,14.50
2007,08,30,01,47,14.40
2007,08,30,01,48,14.30
2007,08,30,01,49,14.20
2007,08,30,01,50,14.20
2007,08,30,01,51,14.20
2007,08,30,01,52,14.20
2007,08,30,01,53,14.20
2007,08,30,01,54,14.10
2007,08,30,01,55,14.10
2007,08,30,01,56,14.10
2007,08,30,01,57,14.10
2007,08,30,01,58,14.00
2007,08,30,01,59,14.00
2007,08,30,02,00,14.00
2007,08,30,02,01,14.00
2007,08,30,02,02,14.00
2007,08,30,02,03,14.00
2007,08,30,02,04,14.10
2007,08,30,02,05,14.10
2007,08,30,02,06,14.20
2007,08,30,02,07,14.20
2007,08,30,02,08,14.20
2007,08,30,02,09,14.30
2007,08,30,02,10,14.30
2007,08,30,02,11,14.40
2007,08,30,02,12,14.40
2007,08,30,02,13,14.50
2007,08,30,02,14,14.50
2007,08,30,02,15,14.50
2007,08,30,02,16,14.50
2007,08,30,02,17,14.60
2007,08,30,02,18,14.60
2007,08,30,02,19,14.60
2007,08,30,02,20,14.60
2007,08,30,02,21,14.60
2007,08,30,02,22,14.60
2007,08,30,02,23,14.60
2007,08,30,02,24,14.60
2007,08,30,02,25,14.70
2007,08,30,02,26,14.70
2007,08,30,02,27,14.70
2007,08,30,02,28,14.70
2007,08,30,02,29,14.70
2007,08,30,02,30,14.70
2007,08,30,02,31,14.70
2007,08,30,02,32,14.80
2007,08,30,02,33,14.80
2007,08,30,02,34,14.80
2007,08,30,02,35,14.80
2007,08,30,02,36,14.80
2007,08,30,02,37,14.80
2007,08,30,02,38,14.80
2007,08,30,02,39,14.80
2007,08,30,02,40,14.80
2007,08,30,02,41,14.80
2007,08,30,02,42,14.80
2007,08,30,02,43,14.80
2007,08,30,02,44,14.90
2007,08,30,02,45,14.90
2007,08,30,02,46,14.90
2007,08,30,02,47,14.90
2007,08,30,02,48,14.80
2007,08,30,02,49,14.80
2007,08,30,02,50,14.80
2007,08,30,02,51,14.70
2007,08,30,02,52,14.70
2007,08,30,02,53,14.60
2007,08,30,02,54,14.50
2007,08,30,02,55,14.30
2007,08,30,02,56,14.20
2007,08,30,02,57,14.20
2007,08,30,02,58,14.20
2007,08,30,02,59,14.10
2007,08,30,03,00,14.10
2007,08,30,03,01,14.10
2007,08,30,03,02,14.00
2007,08,30,03,03,14.00
2007,08,30,03,04,14.00
2007,08,30,03,05,14.00
2007,08,30,03,06,14.00
2007,08,30,03,07,14.00
2007,08,30,03,08,14.00
2007,08,30,03,09,13.90
2007,08,30,03,10,13.90
2007,08,30,03,11,13.90
2007,08,30,03,12,13.80
2007,08,30,03,13,13.80
2007,08,30,03,14,13.80
2007,08,30,03,15,13.80
2007,08,30,03,16,13.80
2007,08,30,03,17,13.80
2007,08,30,03,18,13.70
2007,08,30,03,19,13.70
2007,08,30,03,20,13.70
2007,08,30,03,21,13.70
2007,08,30,03,22,13.70
2007,08,30,03,23,13.60
2007,08,30,03,24,13.60
2007,08,30,03,25,13.60
2007,08,30,03,26,13.50
2007,08,30,03,27,13.50
2007,08,30,03,28,13.40
2007,08,30,03,29,13.30
2007,08,30,03,30,13.30
2007,08,30,03,31,13.20
2007,08,30,03,32,13.20
2007,08,30,03,33,13.10
2007,08,30,03,34,13.10
2007,08,30,03,35,13.00
2007,08,30,03,36,13.00
2007,08,30,03,37,12.90
2007,08,30,03,38,12.80
2007,08,30,03,39,12.80
2007,08,30,03,40,12.80
2007,08,30,03,41,12.70
2007,08,30,03,42,12.60
2007,08,30,03,43,12.50
2007,08,30,03,44,12.50
2007,08,30,03,45,12.40
2007,08,30,03,46,12.30
2007,08,30,03,47,12.30
2007,08,30,03,48,12.30
2007,08,30,03,49,12.20
2007,08,30,03,50,12.20
2007,08,30,03,51,12.20
2007,08,30,03,52,12.20
2007,08,30,03,53,12.20
2007,08,30,03,54,12.20
2007,08,30,03,55,12.20
2007,08,30,03,56,12.20
2007,08,30,03,57,12.30
2007,08,30,03,58,12.30
2007,08,30,03,59,12.30
2007,08,30,04,00,12.30
2007,08,30,04,01,12.30
2007,08,30,04,02,12.30
2007,08,30,04,03,12.30
2007,08,30,04,04,12.30
2007,08,30,04,05,12.30
2007,08,30,04,06,12.30
2007,08,30,04,07,12.30
2007,08,30,04,08,12.30
2007,08,30,04,09,12.30
2007,08,30,04,10,12.30
2007,08,30,04,11,12.30
2007,08,30,04,12,12.30
2007,08,30,04,13,12.30
2007,08,30,04,14,12.30
2007,08,30,04,15,12.40
2007,08,30,04,16,12.40
2007,08,30,04,17,12.40
2007,08,30,04,18,12.40
2007,08,30,04,19,12.50
2007,08,30,04,20,12.50
2007,08,30,04,21,12.50
2007,08,30,04,22,12.50
2007,08,30,04,23,12.50
2007,08,30,04,24,12.50
2007,08,30,04,25,12.50
2007,08,30,04,26,12.50
2007,08,30,04,27,12.50
2007,08,30,04,28,12.60
2007,08,30,04,29,12.60
2007,08,30,04,30,12.60
2007,08,30,04,31,12.60
2007,08,30,04,32,12.60
2007,08,30,04,33,12.60
2007,08,30,04,34,12.70
2007,08,30,04,35,12.70
2007,08,30,04,36,12.70
2007,08,30,04,37,12.70
2007,08,30,04,38,12.70
2007,08,30,04,39,12.70
2007,08,30,04,40,12.70
2007,08,30,04,41,12.70
2007,08,30,04,42,12.70
2007,08,30,04,43,12.80
2007,08,30,04,44,12.80
2007,08,30,04,45,12.80
2007,08,30,04,46,12.80
2007,08,30,04,47,12.80
2007,08,30,04,48,12.80
2007,08,30,04,49,12.80
2007,08,30,04,50,12.90
2007,08,30,04,51,12.90
2007,08,30,04,52,13.00
2007,08,30,04,53,13.00
2007,08,30,04,54,13.10
2007,08,30,04,55,13.10
2007,08,30,04,56,13.20
2007,08,30,04,57,13.20
2007,08,30,04,58,13.30
2007,08,30,04,59,13.40
2007,08,30,05,00,13.50
2007,08,30,05,01,13.60
2007,08,30,05,02,13.60
2007,08,30,05,03,13.70
2007,08,30,05,04,13.70
2007,08,30,05,05,13.70
2007,08,30,05,06,13.70
2007,08,30,05,07,13.70
2007,08,30,05,08,13.70
2007,08,30,05,09,13.70
2007,08,30,05,10,13.70
2007,08,30,05,11,13.70
2007,08,30,05,12,13.70
2007,08,30,05,13,13.70
2007,08,30,05,14,13.70
2007,08,30,05,15,13.70
2007,08,30,05,16,13.70
2007,08,30,05,17,13.70
2007,08,30,05,18,13.70
2007,08,30,05,19,13.70
2007,08,30,05,20,13.70
2007,08,30,05,21,13.70
2007,08,30,05,22,13.70
2007,08,30,05,23,13.70
2007,08,30,05,24,13.70
2007,08,30,05,25,13.70
2007,08,30,05,26,13.70
2007,08,30,05,27,13.70
2007,08,30,05,28,13.70
2007,08,30,05,29,13.70
2007,08,30,05,30,13.70
2007,08,30,05,31,13.70
2007,08,30,05,32,13.70
2007,08,30,05,33,13.70
2007,08,30,05,34,13.70
2007,08,30,05,35,13.70
2007,08,30,05,36,13.70
2007,08,30,05,37,13.70
2007,08,30,05,38,13.70
2007,08,30,05,39,13.70
2007,08,30,05,40,13.70
2007,08,30,05,41,13.70
2007,08,30,05,42,13.60
2007,08,30,05,43,13.60
2007,08,30,05,44,13.60
2007,08,30,05,45,13.60
2007,08,30,05,46,13.60
2007,08,30,05,47,13.60
2007,08,30,05,48,13.60
2007,08,30,05,49,13.60
2007,08,30,05,50,13.60
2007,08,30,05,51,13.50
2007,08,30,05,52,13.50
2007,08,30,05,53,13.50
2007,08,30,05,54,13.50
2007,08,30,05,55,13.50
2007,08,30,05,56,13.50
2007,08,30,05,57,13.50
2007,08,30,05,58,13.50
2007,08,30,05,59,13.50
2007,08,30,06,00,13.50
2007,08,30,06,01,13.50
2007,08,30,06,02,13.50
2007,08,30,06,03,13.50
2007,08,30,06,04,13.50
2007,08,30,06,05,13.50
2007,08,30,06,06,13.50
2007,08,30,06,07,13.50
2007,08,30,06,08,13.50
2007,08,30,06,09,13.50
2007,08,30,06,10,13.50
2007,08,30,06,11,13.50
2007,08,30,06,12,13.50
2007,08,30,06,13,13.40
2007,08,30,06,14,13.40
2007,08,30,06,15,13.40
2007,08,30,06,16,13.40
2007,08,30,06,17,13.40
2007,08,30,06,18,13.30
2007,08,30,06,19,13.30
2007,08,30,06,20,13.20
2007,08,30,06,21,13.00
2007,08,30,06,22,12.90
2007,08,30,06,23,12.80
2007,08,30,06,24,12.60
2007,08,30,06,25,12.60
2007,08,30,06,26,12.50
2007,08,30,06,27,12.40
2007,08,30,06,28,12.30
2007,08,30,06,29,12.30
2007,08,30,06,30,12.20
2007,08,30,06,31,12.10
2007,08,30,06,32,12.10
2007,08,30,06,33,12.00
2007,08,30,06,34,12.00
2007,08,30,06,35,12.00
2007,08,30,06,36,11.90
2007,08,30,06,37,11.90
2007,08,30,06,38,11.90
2007,08,30,06,39,11.90
2007,08,30,06,40,11.90
2007,08,30,06,41,11.90
2007,08,30,06,42,12.00
2007,08,30,06,43,12.00
2007,08,30,06,44,12.00
2007,08,30,06,45,12.00
2007,08,30,06,46,12.10
2007,08,30,06,47,12.10
2007,08,30,06,48,12.10
2007,08,30,06,49,12.20
2007,08,30,06,50,12.20
2007,08,30,06,51,12.20
2007,08,30,06,52,12.30
2007,08,30,06,53,12.30
2007,08,30,06,54,12.30
2007,08,30,06,55,12.30
2007,08,30,06,56,12.40
2007,08,30,06,57,12.40
2007,08,30,06,58,12.40
2007,08,30,06,59,12.50
2007,08,30,07,00,12.50
2007,08,30,07,01,12.50
2007,08,30,07,02,12.50
2007,08,30,07,03,12.50
2007,08,30,07,04,12.60
2007,08,30,07,05,12.60
2007,08,30,07,06,12.60
2007,08,30,07,07,12.60
2007,08,30,07,08,12.60
2007,08,30,07,09,12.60
2007,08,30,07,10,12.60
2007,08,30,07,11,12.70
2007,08,30,07,12,12.70
2007,08,30,07,13,12.70
2007,08,30,07,14,12.80
2007,08,30,07,15,12.80
2007,08,30,07,16,12.80
2007,08,30,07,17,12.90
2007,08,30,07,18,12.90
2007,08,30,07,19,13.00
2007,08,30,07,20,13.10
2007,08,30,07,21,13.10
2007,08,30,07,22,13.20
2007,08,30,07,23,13.30
2007,08,30,07,24,13.30
2007,08,30,07,25,13.40
2007,08,30,07,26,13.40
2007,08,30,07,27,13.50
2007,08,30,07,28,13.60
2007,08,30,07,29,13.60
2007,08,30,07,30,13.70
2007,08,30,07,31,13.70
2007,08,30,07,32,13.70
2007,08,30,07,33,13.70
2007,08,30,07,34,13.80
2007,08,30,07,35,13.80
2007,08,30,07,36,13.90
2007,08,30,07,37,13.90
2007,08,30,07,38,14.00
2007,08,30,07,39,14.00
2007,08,30,07,40,14.10
2007,08,30,07,41,14.10
2007,08,30,07,42,14.10
2007,08,30,07,43,14.20
2007,08,30,07,44,14.20
2007,08,30,07,45,14.20
2007,08,30,07,46,14.30
2007,08,30,07,47,14.30
2007,08,30,07,48,14.30
2007,08,30,07,49,14.40
2007,08,30,07,50,14.40
2007,08,30,07,51,14.50
2007,08,30,07,52,14.50
2007,08,30,07,53,14.50
2007,08,30,07,54,14.40
2007,08,30,07,55,14.50
2007,08,30,07,56,14.50
2007,08,30,07,57,14.60
2007,08,30,07,58,14.60
2007,08,30,07,59,14.70
2007,08,30,08,00,14.60
2007,08,30,08,01,14.60
2007,08,30,08,02,14.70
2007,08,30,08,03,14.70
2007,08,30,08,04,14.80
2007,08,30,08,05,14.80
2007,08,30,08,06,14.90
2007,08,30,08,07,15.00
2007,08,30,08,08,15.00
2007,08,30,08,09,15.10
2007,08,30,08,10,15.20
2007,08,30,08,11,15.30
2007,08,30,08,12,15.30
2007,08,30,08,13,15.40
2007,08,30,08,14,15.50
2007,08,30,08,15,15.60
2007,08,30,08,16,15.60
2007,08,30,08,17,15.70
2007,08,30,08,18,15.80
2007,08,30,08,19,15.80
2007,08,30,08,20,15.80
2007,08,30,08,21,15.80
2007,08,30,08,22,15.90
2007,08,30,08,23,15.90
2007,08,30,08,24,15.90
2007,08,30,08,25,16.00
2007,08,30,08,26,16.10
2007,08,30,08,27,16.10
2007,08,30,08,28,16.20
2007,08,30,08,29,16.30
2007,08,30,08,30,16.40
2007,08,30,08,31,16.50
2007,08,30,08,32,16.60
2007,08,30,08,33,16.70
2007,08,30,08,34,16.70
2007,08,30,08,35,16.70
2007,08,30,08,36,16.80
2007,08,30,08,37,16.80
2007,08,30,08,38,16.90
2007,08,30,08,39,17.00
2007,08,30,08,40,17.00
2007,08,30,08,41,17.10
2007,08,30,08,42,17.10
2007,08,30,08,43,17.10
2007,08,30,08,44,17.10
2007,08,30,08,45,17.00
2007,08,30,08,46,17.00
2007,08,30,08,47,17.00
2007,08,30,08,48,16.90
2007,08,30,08,49,16.90
2007,08,30,08,50,16.90
2007,08,30,08,51,16.90
2007,08,30,08,52,17.00
2007,08,30,08,53,17.00
2007,08,30,08,54,17.00
2007,08,30,08,55,17.00
2007,08,30,08,56,17.00
2007,08,30,08,57,16.90
2007,08,30,08,58,16.90
2007,08,30,08,59,16.90
2007,08,30,09,00,17.00
2007,08,30,09,01,17.10
2007,08,30,09,02,17.10
2007,08,30,09,03,17.20
2007,08,30,09,04,17.30
2007,08,30,09,05,17.40
2007,08,30,09,06,17.50
2007,08,30,09,07,17.60
2007,08,30,09,08,17.60
2007,08,30,09,09,17.70
2007,08,30,09,10,17.70
2007,08,30,09,11,17.70
2007,08,30,09,12,17.80
2007,08,30,09,13,17.80
2007,08,30,09,14,17.90
2007,08,30,09,15,17.90
2007,08,30,09,16,17.90
2007,08,30,09,17,17.90
2007,08,30,09,18,17.90
2007,08,30,09,19,17.90
2007,08,30,09,20,17.90
2007,08,30,09,21,17.90
2007,08,30,09,22,17.90
2007,08,30,09,23,17.90
2007,08,30,09,24,17.90
2007,08,30,09,25,17.90
2007,08,30,09,26,18.10
2007,08,30,09,27,18.10
2007,08,30,09,28,18.10
2007,08,30,09,29,18.10
2007,08,30,09,30,18.10
2007,08,30,09,31,18.20
2007,08,30,09,32,18.20
2007,08,30,09,33,18.20
2007,08,30,09,34,18.20
2007,08,30,09,35,18.20
2007,08,30,09,36,18.30
2007,08,30,09,37,18.40
2007,08,30,09,38,18.40
2007,08,30,09,39,18.40
2007,08,30,09,40,18.50
2007,08,30,09,41,18.50
2007,08,30,09,42,18.60
2007,08,30,09,43,18.60
2007,08,30,09,44,18.60
2007,08,30,09,45,18.60
2007,08,30,09,46,18.50
2007,08,30,09,47,18.50
2007,08,30,09,48,18.40
2007,08,30,09,49,18.30
2007,08,30,09,50,18.30
2007,08,30,09,51,18.20
2007,08,30,09,52,18.30
2007,08,30,09,53,18.40
2007,08,30,09,54,18.50
2007,08,30,09,55,18.60
2007,08,30,09,56,18.60
2007,08,30,09,57,18.60
2007,08,30,09,58,18.70
2007,08,30,09,59,18.80
2007,08,30,10,00,18.90
2007,08,30,10,01,19.00
2007,08,30,10,02,19.10
2007,08,30,10,03,19.10
2007,08,30,10,04,19.20
2007,08,30,10,05,19.30
2007,08,30,10,06,19.40
2007,08,30,10,07,19.40
2007,08,30,10,08,19.40
2007,08,30,10,09,19.50
2007,08,30,10,10,19.50
2007,08,30,10,11,19.60
2007,08,30,10,12,19.70
2007,08,30,10,13,19.80
2007,08,30,10,14,19.90
2007,08,30,10,15,19.90
2007,08,30,10,16,20.00
2007,08,30,10,17,20.10
2007,08,30,10,18,20.20
2007,08,30,10,19,20.20
2007,08,30,10,20,20.20
2007,08,30,10,21,20.20
2007,08,30,10,22,20.10
2007,08,30,10,23,19.90
2007,08,30,10,24,19.90
2007,08,30,10,25,19.90
2007,08,30,10,26,19.80
2007,08,30,10,27,19.70
2007,08,30,10,28,19.70
2007,08,30,10,29,19.70
2007,08,30,10,30,19.80
2007,08,30,10,31,19.90
2007,08,30,10,32,19.90
2007,08,30,10,33,19.90
2007,08,30,10,34,19.90
2007,08,30,10,35,19.90
2007,08,30,10,36,19.80
2007,08,30,10,37,19.70
2007,08,30,10,38,19.60
2007,08,30,10,39,19.60
2007,08,30,10,40,19.70
2007,08,30,10,41,19.80
2007,08,30,10,42,19.80
2007,08,30,10,43,19.90
2007,08,30,10,44,20.00
2007,08,30,10,45,20.10
2007,08,30,10,46,20.20
2007,08,30,10,47,20.30
2007,08,30,10,48,20.30
2007,08,30,10,49,20.20
2007,08,30,10,50,20.20
2007,08,30,10,51,20.20
2007,08,30,10,52,20.20
2007,08,30,10,53,20.20
2007,08,30,10,54,20.20
2007,08,30,10,55,20.20
2007,08,30,10,56,20.30
2007,08,30,10,57,20.40
2007,08,30,10,58,20.50
2007,08,30,10,59,20.50
2007,08,30,11,00,20.50
2007,08,30,11,01,20.70
2007,08,30,11,02,20.70
2007,08,30,11,03,20.70
2007,08,30,11,04,20.80
2007,08,30,11,05,20.80
2007,08,30,11,06,20.90
2007,08,30,11,07,20.90
2007,08,30,11,08,20.90
2007,08,30,11,09,20.90
2007,08,30,11,10,21.00
2007,08,30,11,11,21.00
2007,08,30,11,12,21.10
2007,08,30,11,13,21.20
2007,08,30,11,14,21.30
2007,08,30,11,15,21.40
2007,08,30,11,16,21.60
2007,08,30,11,17,21.60
2007,08,30,11,18,21.60
2007,08,30,11,19,21.60
2007,08,30,11,20,21.60
2007,08,30,11,21,21.60
2007,08,30,11,22,21.70
2007,08,30,11,23,21.80
2007,08,30,11,24,21.90
2007,08,30,11,25,21.90
2007,08,30,11,26,22.00
2007,08,30,11,27,22.00
2007,08,30,11,28,22.00
2007,08,30,11,29,22.00
2007,08,30,11,30,22.00
2007,08,30,11,31,21.90
2007,08,30,11,32,21.70
2007,08,30,11,33,21.60
2007,08,30,11,34,21.60
2007,08,30,11,35,21.60
2007,08,30,11,36,21.60
2007,08,30,11,37,21.70
2007,08,30,11,38,21.70
2007,08,30,11,39,21.70
2007,08,30,11,40,21.60
2007,08,30,11,41,21.60
2007,08,30,11,42,21.60
2007,08,30,11,43,21.60
2007,08,30,11,44,21.70
2007,08,30,11,45,21.70
2007,08,30,11,46,21.80
2007,08,30,11,47,21.90
2007,08,30,11,48,22.00
2007,08,30,11,49,22.00
2007,08,30,11,50,22.20
2007,08,30,11,51,22.20
2007,08,30,11,52,22.20
2007,08,30,11,53,22.30
2007,08,30,11,54,22.40
2007,08,30,11,55,22.50
2007,08,30,11,56,22.50
2007,08,30,11,57,22.60
2007,08,30,11,58,22.70
2007,08,30,11,59,22.80
2007,08,30,12,00,22.80
2007,08,30,12,01,22.70
2007,08,30,12,02,22.60
2007,08,30,12,03,22.60
2007,08,30,12,04,22.60
2007,08,30,12,05,22.60
2007,08,30,12,06,22.60
2007,08,30,12,07,22.70
2007,08,30,12,08,22.80
2007,08,30,12,09,22.80
2007,08,30,12,10,22.90
2007,08,30,12,11,22.90
2007,08,30,12,12,22.90
2007,08,30,12,13,22.90
2007,08,30,12,14,22.80
2007,08,30,12,15,22.70
2007,08,30,12,16,22.60
2007,08,30,12,17,22.50
2007,08,30,12,18,22.50
2007,08,30,12,19,22.60
2007,08,30,12,20,22.80
2007,08,30,12,21,22.90
2007,08,30,12,22,23.00
2007,08,30,12,23,23.20
2007,08,30,12,24,23.30
2007,08,30,12,25,23.30
2007,08,30,12,26,23.50
2007,08,30,12,27,23.60
2007,08,30,12,28,23.70
2007,08,30,12,29,23.70
2007,08,30,12,30,23.80
2007,08,30,12,31,23.80
2007,08,30,12,32,23.90
2007,08,30,12,33,23.90
2007,08,30,12,34,23.90
2007,08,30,12,35,23.90
2007,08,30,12,36,24.10
2007,08,30,12,37,24.10
2007,08,30,12,38,23.90
2007,08,30,12,39,23.70
2007,08,30,12,40,23.70
2007,08,30,12,41,23.60
2007,08,30,12,42,23.50
2007,08,30,12,43,23.40
2007,08,30,12,44,23.30
2007,08,30,12,45,23.30
2007,08,30,12,46,23.30
2007,08,30,12,47,23.30
2007,08,30,12,48,23.30
2007,08,30,12,49,23.30
2007,08,30,12,50,23.30
2007,08,30,12,51,23.30
2007,08,30,12,52,23.30
2007,08,30,12,53,23.30
2007,08,30,12,54,23.30
2007,08,30,12,55,23.40
2007,08,30,12,56,23.40
2007,08,30,12,57,23.40
2007,08,30,12,58,23.40
2007,08,30,12,59,23.40
2007,08,30,13,00,23.40
2007,08,30,13,01,23.40
2007,08,30,13,02,23.40
2007,08,30,13,03,23.40
2007,08,30,13,04,23.40
2007,08,30,13,05,23.30
2007,08,30,13,06,23.30
2007,08,30,13,07,23.30
2007,08,30,13,08,23.30
2007,08,30,13,09,23.40
2007,08,30,13,10,23.50
2007,08,30,13,11,23.60
2007,08,30,13,12,23.70
2007,08,30,13,13,23.70
2007,08,30,13,14,23.70
2007,08,30,13,15,23.70
2007,08,30,13,16,23.70
2007,08,30,13,17,23.70
2007,08,30,13,18,23.70
2007,08,30,13,19,23.70
2007,08,30,13,20,23.70
2007,08,30,13,21,23.70
2007,08,30,13,22,23.70
2007,08,30,13,23,23.60
2007,08,30,13,24,23.70
2007,08,30,13,25,23.70
2007,08,30,13,26,23.70
2007,08,30,13,27,23.70
2007,08,30,13,28,23.70
2007,08,30,13,29,23.80
2007,08,30,13,30,23.90
2007,08,30,13,31,24.00
2007,08,30,13,32,24.10
2007,08,30,13,33,24.10
2007,08,30,13,34,24.10
2007,08,30,13,35,24.10
2007,08,30,13,36,24.10
2007,08,30,13,37,24.10
2007,08,30,13,38,24.20
2007,08,30,13,39,24.20
2007,08,30,13,40,24.20
2007,08,30,13,41,24.30
2007,08,30,13,42,24.30
2007,08,30,13,43,24.20
2007,08,30,13,44,24.20
2007,08,30,13,45,24.30
2007,08,30,13,46,24.40
2007,08,30,13,47,24.50
2007,08,30,13,48,24.50
2007,08,30,13,49,24.60
2007,08,30,13,50,24.70
2007,08,30,13,51,24.80
2007,08,30,13,52,24.80
2007,08,30,13,53,24.80
2007,08,30,13,54,24.70
2007,08,30,13,55,24.70
2007,08,30,13,56,24.60
2007,08,30,13,57,24.50
2007,08,30,13,58,24.40
2007,08,30,13,59,24.40
2007,08,30,14,00,24.50
2007,08,30,14,01,24.40
2007,08,30,14,02,24.30
2007,08,30,14,03,24.30
2007,08,30,14,04,24.40
2007,08,30,14,05,24.40
2007,08,30,14,06,24.40
2007,08,30,14,07,24.50
2007,08,30,14,08,24.40
2007,08,30,14,09,24.40
2007,08,30,14,10,24.50
2007,08,30,14,11,24.50
2007,08,30,14,12,24.50
2007,08,30,14,13,24.50
2007,08,30,14,14,24.50
2007,08,30,14,15,24.40
2007,08,30,14,16,24.30
2007,08,30,14,17,24.40
2007,08,30,14,18,24.50
2007,08,30,14,19,24.50
2007,08,30,14,20,24.60
2007,08,30,14,21,24.60
2007,08,30,14,22,24.60
2007,08,30,14,23,24.60
2007,08,30,14,24,24.60
2007,08,30,14,25,24.60
2007,08,30,14,26,24.70
2007,08,30,14,27,24.70
2007,08,30,14,28,24.70
2007,08,30,14,29,24.80
2007,08,30,14,30,24.90
2007,08,30,14,31,25.00
2007,08,30,14,32,25.10
2007,08,30,14,33,25.00
2007,08,30,14,34,24.90
2007,08,30,14,35,24.80
2007,08,30,14,36,24.80
2007,08,30,14,37,24.80
2007,08,30,14,38,24.80
2007,08,30,14,39,24.80
2007,08,30,14,40,24.80
2007,08,30,14,41,24.70
2007,08,30,14,42,24.70
2007,08,30,14,43,24.60
2007,08,30,14,44,24.60
2007,08,30,14,45,24.60
2007,08,30,14,46,24.60
2007,08,30,14,47,24.60
2007,08,30,14,48,24.50
2007,08,30,14,49,24.40
2007,08,30,14,50,24.40
2007,08,30,14,51,24.40
2007,08,30,14,52,24.40
2007,08,30,14,53,24.40
2007,08,30,14,54,24.30
2007,08,30,14,55,24.30
2007,08,30,14,56,24.40
2007,08,30,14,57,24.40
2007,08,30,14,58,24.50
2007,08,30,14,59,24.50
2007,08,30,15,00,24.50
2007,08,30,15,01,24.40
2007,08,30,15,02,24.40
2007,08,30,15,03,24.50
2007,08,30,15,04,24.60
2007,08,30,15,05,24.60
2007,08,30,15,06,24.60
2007,08,30,15,07,24.70
2007,08,30,15,08,24.70
2007,08,30,15,09,24.70
2007,08,30,15,10,24.70
2007,08,30,15,11,24.70
2007,08,30,15,12,24.70
2007,08,30,15,13,24.70
2007,08,30,15,14,24.70
2007,08,30,15,15,24.60
2007,08,30,15,16,24.50
2007,08,30,15,17,24.50
2007,08,30,15,18,24.70
2007,08,30,15,19,24.80
2007,08,30,15,20,24.80
2007,08,30,15,21,24.90
2007,08,30,15,22,25.00
2007,08,30,15,23,25.00
2007,08,30,15,24,25.00
2007,08,30,15,25,25.10
2007,08,30,15,26,25.10
2007,08,30,15,27,25.10
2007,08,30,15,28,25.10
2007,08,30,15,29,25.10
2007,08,30,15,30,25.10
2007,08,30,15,31,25.10
2007,08,30,15,32,25.10
2007,08,30,15,33,25.10
2007,08,30,15,34,25.20
2007,08,30,15,35,25.20
2007,08,30,15,36,25.10
2007,08,30,15,37,25.10
2007,08,30,15,38,25.10
2007,08,30,15,39,25.10
2007,08,30,15,40,25.00
2007,08,30,15,41,24.90
2007,08,30,15,42,24.80
2007,08,30,15,43,24.70
2007,08,30,15,44,24.70
2007,08,30,15,45,24.70
2007,08,30,15,46,24.60
2007,08,30,15,47,24.60
2007,08,30,15,48,24.60
2007,08,30,15,49,24.60
2007,08,30,15,50,24.50
2007,08,30,15,51,24.50
2007,08,30,15,52,24.50
2007,08,30,15,53,24.50
2007,08,30,15,54,24.40
2007,08,30,15,55,24.40
2007,08,30,15,56,24.50
2007,08,30,15,57,24.50
2007,08,30,15,58,24.60
2007,08,30,15,59,24.60
2007,08,30,16,00,24.50
2007,08,30,16,01,24.60
2007,08,30,16,02,24.60
2007,08,30,16,03,24.60
2007,08,30,16,04,24.60
2007,08,30,16,05,24.50
2007,08,30,16,06,24.50
2007,08,30,16,07,24.50
2007,08,30,16,08,24.50
2007,08,30,16,09,24.50
2007,08,30,16,10,24.50
2007,08,30,16,11,24.50
2007,08,30,16,12,24.50
2007,08,30,16,13,24.50
2007,08,30,16,14,24.50
2007,08,30,16,15,24.50
2007,08,30,16,16,24.40
2007,08,30,16,17,24.40
2007,08,30,16,18,24.30
2007,08,30,16,19,24.30
2007,08,30,16,20,24.30
2007,08,30,16,21,24.40
2007,08,30,16,22,24.40
2007,08,30,16,23,24.40
2007,08,30,16,24,24.40
2007,08,30,16,25,24.40
2007,08,30,16,26,24.50
2007,08,30,16,27,24.50
2007,08,30,16,28,24.50
2007,08,30,16,29,24.50
2007,08,30,16,30,24.50
2007,08,30,16,31,24.50
2007,08,30,16,32,24.40
2007,08,30,16,33,24.40
2007,08,30,16,34,24.20
2007,08,30,16,35,24.20
2007,08,30,16,36,24.20
2007,08,30,16,37,24.20
2007,08,30,16,38,24.20
2007,08,30,16,39,24.20
2007,08,30,16,40,24.20
2007,08,30,16,41,24.20
2007,08,30,16,42,24.30
2007,08,30,16,43,24.30
2007,08,30,16,44,24.50
2007,08,30,16,45,24.50
2007,08,30,16,46,24.60
2007,08,30,16,47,24.60
2007,08,30,16,48,24.80
2007,08,30,16,49,24.80
2007,08,30,16,50,24.80
2007,08,30,16,51,24.80
2007,08,30,16,52,24.80
2007,08,30,16,53,24.80
2007,08,30,16,54,24.80
2007,08,30,16,55,24.80
2007,08,30,16,56,24.80
2007,08,30,16,57,24.80
2007,08,30,16,58,24.70
2007,08,30,16,59,24.70
2007,08,30,17,00,24.60
2007,08,30,17,01,24.60
2007,08,30,17,02,24.70
2007,08,30,17,03,24.70
2007,08,30,17,04,24.70
2007,08,30,17,05,24.70
2007,08,30,17,06,24.70
2007,08,30,17,07,24.80
2007,08,30,17,08,24.70
2007,08,30,17,09,24.70
2007,08,30,17,10,24.80
2007,08,30,17,11,24.80
2007,08,30,17,12,24.80
2007,08,30,17,13,24.80
2007,08,30,17,14,24.80
2007,08,30,17,15,24.90
2007,08,30,17,16,24.90
2007,08,30,17,17,24.80
2007,08,30,17,18,24.80
2007,08,30,17,19,24.90